• In Netherlands
  • List of Countries
  • For 7 days
  • Water Temperature
  • Satellite Maps
  • Weather Map
  • Weather Widgets
  • user-avatar
    Login

    Hourly Weather Algiers

    Today, 16 January, Monday

    Time Temperature Precipitation Wind Pressure Humidity
    00:00 +5°C° 0 mm 3 mps 752 mmHg 87%
    01:00 +5°C° 0.3 mm 4 mps 752 mmHg 88%
    02:00 +5°C° 0.3 mm 4 mps 752 mmHg 89%
    03:00 +5°C° 0.3 mm 4 mps 752 mmHg 90%
    04:00 +5°C° 0.5 mm 5 mps 751 mmHg 91%
    05:00 +5°C° 0.5 mm 5 mps 751 mmHg 92%
    06:00 +5°C° 0 mm 5 mps 751 mmHg 93%
    07:00 +6°C° 0.7 mm 5 mps 751 mmHg 91%
    08:00 +6°C° 0.7 mm 5 mps 751 mmHg 89%
    09:00 +7°C° 0.7 mm 5 mps 751 mmHg 87%
    10:00 +8°C° 0.9 mm 6 mps 750 mmHg 83%
    11:00 +9°C° 0.9 mm 6 mps 750 mmHg 80%
    12:00 +10°C° 0.9 mm 7 mps 749 mmHg 76%
    13:00 +10°C° 0.8 mm 7 mps 749 mmHg 76%
    14:00 +10°C° 0.8 mm 7 mps 748 mmHg 76%
    15:00 +10°C° 0.8 mm 7 mps 748 mmHg 76%
    16:00 +9°C° 1 mm 7 mps 748 mmHg 81%
    17:00 +9°C° 1 mm 7 mps 748 mmHg 86%
    18:00 +8°C° 1 mm 7 mps 748 mmHg 91%
    19:00 +8°C° 0.8 mm 7 mps 748 mmHg 91%
    20:00 +8°C° 0.8 mm 6 mps 748 mmHg 91%
    21:00 +8°C° 0.8 mm 6 mps 748 mmHg 91%
    22:00 +7°C° 0.6 mm 6 mps 748 mmHg 92%
    23:00 +7°C° 0.6 mm 5 mps 748 mmHg 93%

    Tomorrow, 17 January, Tuesday

    Time Temperature Precipitation Wind Pressure Humidity
    00:00 +7°C° 0.6 mm 5 mps 747 mmHg 94%
    01:00 +7°C° 0.4 mm 5 mps 747 mmHg 94%
    02:00 +7°C° 0.4 mm 5 mps 747 mmHg 94%
    03:00 +7°C° 0.4 mm 5 mps 747 mmHg 94%
    04:00 +7°C° 0.5 mm 6 mps 747 mmHg 94%
    05:00 +5°C° 0.5 mm 6 mps 746 mmHg 95%
    06:00 +5°C° 0.5 mm 6 mps 746 mmHg 95%
    07:00 +5°C° 1.2 mm 7 mps 746 mmHg 95%
    08:00 +4°C° 1.2 mm 8 mps 746 mmHg 94%
    09:00 +4°C° 1.2 mm 8 mps 747 mmHg 94%
    10:00 +4°C° 1.1 mm 8 mps 747 mmHg 93%
    11:00 +3°C° 1.1 mm 7 mps 747 mmHg 92%
    12:00 +3°C° 1.1 mm 6 mps 747 mmHg 91%
    13:00 +3°C° 0.8 mm 7 mps 747 mmHg 90%
    14:00 +3°C° 0.8 mm 7 mps 747 mmHg 90%
    15:00 +3°C° 0.8 mm 7 mps 748 mmHg 89%
    16:00 +3°C° 0.6 mm 6 mps 748 mmHg 90%
    17:00 +2°C° 0.6 mm 6 mps 748 mmHg 90%
    18:00 +2°C° 0.6 mm 6 mps 749 mmHg 90%
    19:00 +1°C° 0.6 mm 5 mps 749 mmHg 91%
    20:00 +1°C° 0.6 mm 5 mps 749 mmHg 91%
    21:00 0°C° 0.6 mm 4 mps 749 mmHg 91%
    22:00 +1°C° 0.7 mm 3 mps 749 mmHg 91%
    23:00 +1°C° 0.7 mm 3 mps 749 mmHg 91%

    Day after tomorrow, 18 January, Wednesday

    Time Temperature Precipitation Wind Pressure Humidity
    00:00 +1°C° 0.7 mm 3 mps 750 mmHg 91%
    01:00 +1°C° 1 mm 3 mps 749 mmHg 91%
    02:00 0°C° 1 mm 3 mps 749 mmHg 90%
    03:00 0°C° 1 mm 3 mps 749 mmHg 90%
    04:00 0°C° 1.3 mm 3 mps 749 mmHg 89%
    05:00 0°C° 1.3 mm 3 mps 749 mmHg 88%
    06:00 +2°C° 1.3 mm 2 mps 749 mmHg 88%
    07:00 +1°C° 1 mm 3 mps 750 mmHg 86%
    08:00 +2°C° 1 mm 3 mps 750 mmHg 85%
    09:00 +3°C° 1 mm 3 mps 750 mmHg 83%
    10:00 +5°C° 0.5 mm 2 mps 750 mmHg 82%
    11:00 +6°C° 0.5 mm 2 mps 750 mmHg 81%
    12:00 +7°C° 0.5 mm 2 mps 750 mmHg 81%
    13:00 +7°C° 0.8 mm 2 mps 750 mmHg 80%
    14:00 +7°C° 0.8 mm 3 mps 750 mmHg 80%
    15:00 +8°C° 0.8 mm 3 mps 749 mmHg 80%
    16:00 +5°C° 0.8 mm 3 mps 750 mmHg 84%
    17:00 +3°C° 0.8 mm 4 mps 750 mmHg 89%
    18:00 +1°C° 0.8 mm 5 mps 750 mmHg 93%
    19:00 +1°C° 0.8 mm 4 mps 750 mmHg 92%
    20:00 +1°C° 0.8 mm 4 mps 750 mmHg 92%
    21:00 +2°C° 0.8 mm 3 mps 750 mmHg 91%
    22:00 +2°C° 0.3 mm 3 mps 750 mmHg 89%
    23:00 +2°C° 0.3 mm 3 mps 750 mmHg 87%

    19 January, Thursday

    Time Temperature Precipitation Wind Pressure Humidity
    00:00 +3°C° 0.3 mm 3 mps 750 mmHg 85%
    01:00 +3°C° 0 mm 4 mps 750 mmHg 83%
    02:00 +3°C° 0 mm 4 mps 749 mmHg 81%
    03:00 +3°C° 0 mm 4 mps 749 mmHg 79%
    04:00 +4°C° 0.1 mm 4 mps 749 mmHg 80%
    05:00 +4°C° 0.1 mm 4 mps 749 mmHg 80%
    06:00 +4°C° 0.1 mm 4 mps 749 mmHg 81%
    07:00 +4°C° 0.1 mm 4 mps 749 mmHg 82%
    08:00 +5°C° 0.1 mm 4 mps 749 mmHg 83%
    09:00 +5°C° 0.1 mm 4 mps 749 mmHg 84%
    10:00 +6°C° 0 mm 5 mps 749 mmHg 80%
    11:00 +7°C° 0 mm 5 mps 749 mmHg 76%
    12:00 +8°C° 0 mm 5 mps 748 mmHg 72%
    13:00 +9°C° 0 mm 5 mps 748 mmHg 71%
    14:00 +9°C° 0 mm 5 mps 748 mmHg 71%
    15:00 +9°C° 0 mm 5 mps 747 mmHg 70%
    16:00 +8°C° 0 mm 5 mps 748 mmHg 71%
    17:00 +7°C° 0 mm 5 mps 748 mmHg 71%
    18:00 +6°C° 0 mm 5 mps 748 mmHg 72%
    19:00 +6°C° 0 mm 5 mps 748 mmHg 72%
    20:00 +6°C° 0 mm 4 mps 749 mmHg 73%
    21:00 +5°C° 0 mm 4 mps 749 mmHg 73%
    22:00 +5°C° 0 mm 4 mps 749 mmHg 73%
    23:00 +5°C° 0 mm 4 mps 749 mmHg 72%

    20 January, Friday

    Time Temperature Precipitation Wind Pressure Humidity
    00:00 +5°C° 0 mm 4 mps 749 mmHg 72%
    01:00 +5°C° 0.1 mm 4 mps 748 mmHg 72%
    02:00 +5°C° 0.1 mm 4 mps 748 mmHg 72%
    03:00 +5°C° 0.1 mm 3 mps 748 mmHg 73%
    04:00 +5°C° 0.1 mm 3 mps 748 mmHg 72%
    05:00 +4°C° 0.1 mm 3 mps 748 mmHg 71%
    06:00 +4°C° 0.1 mm 3 mps 747 mmHg 71%
    07:00 +5°C° 0.1 mm 3 mps 748 mmHg 71%
    08:00 +7°C° 0.1 mm 2 mps 748 mmHg 71%
    09:00 +7°C° 0.1 mm 2 mps 748 mmHg 72%
    10:00 +8°C° 0.1 mm 2 mps 748 mmHg 69%
    11:00 +10°C° 0.1 mm 1 mps 747 mmHg 65%
    12:00 +11°C° 0.1 mm 1 mps 747 mmHg 62%
    13:00 +10°C° 0.2 mm 1 mps 747 mmHg 67%
    14:00 +10°C° 0.2 mm 1 mps 747 mmHg 71%
    15:00 +10°C° 0.2 mm 1 mps 746 mmHg 75%
    16:00 +9°C° 0.2 mm 1 mps 746 mmHg 79%
    17:00 +8°C° 0.2 mm 1 mps 747 mmHg 82%
    18:00 +7°C° 0.2 mm 1 mps 747 mmHg 85%
    19:00 +6°C° 0.1 mm 2 mps 747 mmHg 86%
    20:00 +5°C° 0.1 mm 2 mps 747 mmHg 86%
    21:00 +4°C° 0.1 mm 3 mps 747 mmHg 86%
    22:00 +4°C° 0.2 mm 3 mps 747 mmHg 86%
    23:00 +5°C° 0.2 mm 4 mps 747 mmHg 86%

    21 January, Saturday

    Time Temperature Precipitation Wind Pressure Humidity
    00:00 +5°C° 0.2 mm 5 mps 746 mmHg 86%
    01:00 +5°C° 0.5 mm 5 mps 746 mmHg 87%
    02:00 +5°C° 0.5 mm 5 mps 745 mmHg 88%
    03:00 +4°C° 0.5 mm 6 mps 745 mmHg 89%
    04:00 +4°C° 2.6 mm 6 mps 745 mmHg 91%
    05:00 +5°C° 2.6 mm 7 mps 745 mmHg 93%
    06:00 +5°C° 2.6 mm 8 mps 744 mmHg 95%
    07:00 +5°C° 4.8 mm 8 mps 745 mmHg 95%
    08:00 +6°C° 4.8 mm 8 mps 745 mmHg 96%
    09:00 +6°C° 4.8 mm 9 mps 745 mmHg 97%
    10:00 +6°C° 2.4 mm 8 mps 745 mmHg 96%
    11:00 +7°C° 2.4 mm 8 mps 745 mmHg 96%
    12:00 +7°C° 2.4 mm 8 mps 746 mmHg 95%
    13:00 +9°C° 1.5 mm 8 mps 746 mmHg 94%
    14:00 +9°C° 1.5 mm 8 mps 746 mmHg 94%
    15:00 +8°C° 1.5 mm 9 mps 746 mmHg 94%
    16:00 +7°C° 1.3 mm 8 mps 747 mmHg 94%
    17:00 +7°C° 1.3 mm 8 mps 747 mmHg 94%
    18:00 +8°C° 1.3 mm 7 mps 748 mmHg 95%
    19:00 +8°C° 0.6 mm 7 mps 749 mmHg 94%
    20:00 +6°C° 0.6 mm 7 mps 749 mmHg 94%
    21:00 +7°C° 0.6 mm 6 mps 750 mmHg 94%
    22:00 +7°C° 0.2 mm 6 mps 750 mmHg 94%
    23:00 +7°C° 0.2 mm 6 mps 751 mmHg 94%
    Show more